Montana Department of Transportation

Main Content

Accidents and Incidents Report

Hourly Weather Roundup

ASUS45 KTFX 200010
RWRMT 
MONTANA REGIONAL WEATHER ROUNDUP
NATIONAL WEATHER SERVICE GREAT FALLS MT
600 PM MDT THU APR 19 2018

NOTE: "FAIR" INDICATES FEW OR NO CLOUDS BELOW 12000 FEET WITH NO
SIGNIFICANT WEATHER AND/OR OBSTRUCTIONS TO VISIBILITY.

MTZ001.007-043-200100-
WEST OF THE DIVIDE
  
CITY           SKY/WX    TMP DP  RH WIND       PRES   REMARKS
KALISPELL      FAIR      62  22  21 W6        30.04F                  
MISSOULA       FAIR      60  24  25 N17G26    30.03R                  
BUTTE          CLOUDY    54  19  25 N7        30.01S                  
MULLAN PASS    FAIR      48  18  30 VRB3      30.10R                  
ANACONDA         N/A     55  18  22 N12       30.02R                  
DEER LODGE       N/A     55  19  24 NE10      30.04S                  
HAMILTON         N/A     61  19  20 N9G16     30.01S                  
RONAN            N/A     59  23  25 NE3       30.07F                  
--------------------------------

MTZ008-052.055-200100-
SOUTHWEST MONTANA
  
CITY           SKY/WX    TMP DP  RH WIND       PRES   REMARKS
BOZEMAN        FAIR      59  22  24 E9        29.99S                  
DILLON         FAIR      58  20  22 N10       29.97R                  
ENNIS          PTSUNNY   55  23  28 NE8G15    30.01R                  
W YELLOWSTONE  FAIR      46  18  31 NE12      29.96R                  
THREE FORKS      N/A     62  24  23 N5        29.98F                  
--------------------------------

MTZ009-010-012-014-046-048-049-054-200100-
EAST SLOPES AND CENTRAL MONTANA
  
CITY           SKY/WX    TMP DP  RH WIND       PRES   REMARKS
CUT BANK       FAIR      54  24  31 S7        30.07S                  
GREAT FALLS    FAIR      60  28  29 NW10      30.04S                  
HELENA         FAIR      61  27  27 N12       30.02S                  
AUGUSTA        FAIR      53  25  33 E9        30.06S                  
BOWMANS CRNR   FAIR      53  22  30 NE7       30.05R                  
CHOTEAU          N/A     55  23  28 CALM      30.08S                  
POWER          FAIR      58  26  29 N7        30.05S                  
ULM            PTSUNNY   58  26  29 CALM      30.04S                  
WHITE SULPHUR    N/A     54  25  32 E10       30.01R                  
--------------------------------

MTZ011-013-016-021-045-047-050-051-200100-
NORTH CENTRAL MONTANA
  
CITY           SKY/WX    TMP DP  RH WIND       PRES   REMARKS
HAVRE          FAIR      58  39  49 E25G31    30.09S                  
LEWISTOWN      FAIR      57  28  33 E20       30.04S                  
N BAR RANCH    FAIR      55  23  28 SE16      30.08S                  
CHINOOK          N/A     55  37  50 MISG      30.11S                  
GEYSER         FAIR      57  26  30 E13       30.03R                  
GRASS RANGE    FAIR      57  29  33 E21       30.02F                  
STANFORD       FAIR      57  25  29 SE16      30.03S                  
--------------------------------

MTZ017.020-022.027-061-062-200100-
NORTHEAST MONTANA
  
CITY           SKY/WX    TMP DP  RH WIND       PRES   REMARKS
GLASGOW        FAIR      58  33  39 E26G33    30.15F                  
GLENDIVE       FAIR      58  24  27 E18       30.19R                  
JORDAN           N/A     61  30  31 E16       30.11S                  
MALTA          SUNNY     59  37  44 E20       30.11S                  
SIDNEY         FAIR      55  34  45 E18       30.24S                  
WOLF POINT     FAIR      57  34  41 E20G29    30.21S                  
PLENTYWOOD       N/A     46  34  61 E16       30.29R                  
POPLAR           N/A     54  34  47 MISG      30.23S                  
--------------------------------

MTZ028.42-056.058-200100-
SOUTHCENTRAL AND SOUTHEAST MONTANA
  
CITY           SKY/WX    TMP DP  RH WIND       PRES   REMARKS
BAKER          FAIR      55  28  35 E25       30.18S                  
BILLINGS       PTSUNNY   61  29  29 E16       30.01S                  
LIVINGSTON     FAIR      58  25  28 NE17G26   29.99RMILES CITY     FAIR      61  30  31 SE18      30.10S                  
BIG TIMBER     SUNNY     57  21  24 SE9       30.03                   
FORSYTH          N/A     61  32  33 MISG      30.06S                  
HARLOWTON      FAIR      57  21  24 SE10      30.03F                  
LAUREL           N/A     61  27  27 E15       30.01R                  
--------------------------------

REGIONAL REPORTS...DAKOTAS
  
CITY           SKY/WX    TMP DP  RH WIND       PRES   REMARKS
MINOT          FAIR      47  36  65 SE5       30.33F                  
DICKINSON      FAIR      53  27  36 E13       30.23S                  
BEACH          FAIR      55  25  30 E21G28    30.24S                  
CROSBY         FAIR      48  34  57 SE13      30.32S                  
TIOGA          FAIR      43  43 100 E13       30.33S                  
WATFORD CITY   FAIR      50  37  62 E15       30.27F                  
BISMARCK       FAIR      53  33  46 E17       30.32S                  
GRAND FORKS    FAIR      51  36  56 S13       30.37S                  
FARGO          FAIR      53  34  48 N9        30.38S                  
BUFFALO SD       N/A     55  29  36 SE18G28   30.13R                  
RAPID CITY     FAIR      54  33  45 E22       30.16S                  
--------------------------------

REGIONAL REPORTS...WYOMING/IDAHO/WASHINGTON
  
CITY           SKY/WX    TMP DP  RH WIND       PRES   REMARKS
GILLETTE       FAIR      56  29  35 SE20G26   30.05S                  
SHERIDAN       FAIR      61  26  26 SE13      30.00R                  
BUFFALO WY     FAIR      58  25  28 S17G24    30.04S                  
CODY           FAIR      53  20  27 E3        30.03R                  
YELLOWSTONE LA   N/A     41  18  39 VRB3      30.05R                  
IDAHO FALLS    PTSUNNY   62  20  19 N16       29.86S                  
SALMON         PTSUNNY   61  22  22 NW8       29.94R                  
BOISE          FAIR      67  27  22 NW22G33   29.88S                  
SPOKANE        FAIR      62  26  25 NW10      30.10S                  
--------------------------------

REGIONAL REPORTS...ALBERTA
  
CITY           SKY/WX    TMP DP  RH WIND       PRES   REMARKS
CALGARY        MOSUNNY   48  32  53 S12       30.04S                  
CARDSTON         N/A     55  32  41 E9          N/A                   
EDMONTON       SUNNY     52  25  35 S18G30    30.01F                  
FORT MCMURRAY  SUNNY     57  21  24 SW20G26   29.95F                  
HIGH LEVEL     PTSUNNY   52  23  32 VRB8G17   29.72F                  
LETHBRIDGE     MOSUNNY   57  25  28 S10G18    30.04F                  
LLOYDMINSTER   MOSUNNY   48  34  57 SE20      30.11F                  
MEDICINE HAT   MOSUNNY   61  25  25 S12       30.08S                  
MILK RIVER       N/A     57  27  30 S10         N/A                   
ONEFOUR          N/A     52  36  54 E17         N/A                   
PEACE RIVER    PTSUNNY   45  25  45 SW12      29.91F                  
PINCHER CREEK  PTSUNNY   52  28  40 SE10      30.04F                  
WATERTON GATE    N/A     55  21  26 S6          N/A                   
--------------------------------

REGIONAL REPORTS...SASKATCHEWAN
  
CITY           SKY/WX    TMP DP  RH WIND       PRES   REMARKS
CORONACH         N/A     48  34  57 E15G21      N/A                   
CYPRESS HILLS    N/A     46  27  46 SE13        N/A                   
ESTEVAN        CLOUDY    50  23  34 E12G18    30.32F                  
MOOSE JAW        N/A     48  30  49 SE17        N/A                   
PRINCE ALBERT  MOSUNNY   41  30  65 S6        30.28F                  
REGINA         PTSUNNY   45  36  70 SE15      30.32F                  
ROCKGLEN         N/A     48  32  53 E14G20      N/A                   
SASKATOON      MOSUNNY   52  34  50 SE18G25   30.24F                  
SWIFT CURRENT  SUNNY     54  32  43 SE16G23   30.18S                  
VAL MARIE        N/A     54  32  43 E20G26      N/A                   
--------------------------------